This is the latest recevied weather packets stored in our database for station/object EA5JUX. If no packets are shown the sender has not sent any weather packets the latest 10 day(s).
| Time | Temp. | Humidity | Pressure | Rain* | Wind** | Luminosity | Snow |
|---|---|---|---|---|---|---|---|
| 1788098534 | 28.89° C | 59% | 1015.3 hPa | 0 mm | - | - | - |
| 1788098234 | 29.44° C | 59% | 1015.5 hPa | 0 mm | - | - | - |
| 1788097935 | 28.89° C | 57% | 1015.5 hPa | 0 mm | - | - | - |
| 1788097635 | 29.44° C | 59% | 1015.5 hPa | 0 mm | - | - | - |
| 1788097335 | 30.56° C | 55% | 1015.4 hPa | 0 mm | - | - | - |
| 1788097035 | 29.44° C | 55% | 1015.6 hPa | 0 mm | - | - | - |
| 1788096734 | 28.89° C | 54% | 1015.5 hPa | 0 mm | - | - | - |
| 1788096434 | 29.44° C | 60% | 1015.7 hPa | 0 mm | - | - | - |
| 1788096134 | 28.89° C | 60% | 1015.6 hPa | 0 mm | - | - | - |
| 1788095845 | 28.33° C | 62% | 1015.9 hPa | 0 mm | - | - | - |
| 1788095534 | 28.33° C | 64% | 1016 hPa | 0 mm | - | - | - |
| 1788095234 | 28.89° C | 61% | 1016 hPa | 0 mm | - | - | - |
| 1788094934 | 28.33° C | 62% | 1016.1 hPa | 0 mm | - | - | - |
| 1788094634 | 28.33° C | 67% | 1016.1 hPa | 0 mm | - | - | - |
| 1788094335 | 28.33° C | 66% | 1016.3 hPa | 0 mm | - | - | - |
| 1788094052 | 28.33° C | 67% | 1016.4 hPa | 0 mm | - | - | - |
| 1788093734 | 27.78° C | 67% | 1016.3 hPa | 0 mm | - | - | - |
| 1788093434 | 28.33° C | 68% | 1016.3 hPa | 0 mm | - | - | - |
| 1788093134 | 28.33° C | 68% | 1016.5 hPa | 0 mm | - | - | - |
| 1788092834 | 28.33° C | 68% | 1016.4 hPa | 0 mm | - | - | - |
| 1788092555 | 28.33° C | 67% | 1016.4 hPa | 0 mm | - | - | - |
| 1788092255 | 28.89° C | 67% | 1016.3 hPa | 0 mm | - | - | - |
| 1788091935 | 28.33° C | 67% | 1016.5 hPa | 0 mm | - | - | - |
| 1788091635 | 28.33° C | 65% | 1016.3 hPa | 0 mm | - | - | - |
| 1788091334 | 28.33° C | 63% | 1016.7 hPa | 0 mm | - | - | - |
* Rain latest hour (hover to see other rain measurements)
** Current wind speed in m/s (hover to see current wind gust speed)